Regional Weather Roundup
Issued by NWS

Home | Current Version | Previous Version | Text Only | Print | Product List | Glossary Off
Versions: 1 2 3 4 5 6 7 8 9 10 11 12 13 14 15 16 17 18 19 20 21 22 23 24 25 26 27 28 29 30 31 32 33 34 35 36 37 38 39 40 41 42 43 44 45 46 47 48 49 50

000
ASUS43 KOAX 232102
RWRNE

WEATHER ROUNDUP FOR NEBRASKA
NATIONAL WEATHER SERVICE OMAHA NE
400 PM CDT SUN APR 23 2017

NOTES: SATELLITE DATA IS BEING USED TO AUGMENT CLOUD COVER ABOVE
       12000 FEET.
       "FAIR" INDICATES FEW OR NO CLOUDS BELOW 12,000 FEET WITH NO
       SIGNIFICANT WEATHER AND/OR OBSTRUCTIONS TO VISIBILITY.

  * THESE STATIONS DO NOT REPORT WEATHER SUCH AS RAIN...SNOW OR FOG.

NEZ001>004-019>022-054>056-232200-
NEBRASKA PANHANDLE

CITY           SKY/WX    TMP DP  RH WIND       PRES   REMARKS
SCOTTSBLUFF    CLOUDY    76  31  19 SE14      29.74F
ALLIANCE       CLOUDY    70  32  24 S20       29.76F
CHADRON        CLOUDY    75  32  20 SW12      29.70F
KIMBALL        CLOUDY    69  37  30 S14G20    29.81F
SIDNEY         CLOUDY    66  42  41 S17G24    29.80F
$$

NEZ057>060-069>072-079>082-232200-
SOUTHWEST NEBRASKA

CITY           SKY/WX    TMP DP  RH WIND       PRES   REMARKS
NORTH PLATTE   PTSUNNY   70  33  25 S21G37    29.85F
IMPERIAL       CLOUDY    68  38  33 S26G40    29.84F
LEXINGTON      CLOUDY    70  21  16 S30G36    29.90F
MCCOOK         CLOUDY    71  36  27 S23G41    29.87F
OGALLALA       MOSUNNY   70  37  29 SW21G26   29.83F
$$

NEZ005>010-023>029-035>040-094-232200-
NORTH CENTRAL NEBRASKA

CITY           SKY/WX    TMP DP  RH WIND       PRES   REMARKS
VALENTINE      MOSUNNY   75  29  18 S26G33    29.76F
AINSWORTH      SUNNY     70  31  23 S26G37    29.80F
BROKEN BOW     SUNNY     71  24  17 S35G45    29.87F
O`NEILL        PTSUNNY   72  17  12 SW28G38   29.85F
ORD            SUNNY     70  23  17 S29G39    29.88F
THEDFORD       CLOUDY    71  29  21 S24G35    29.83F
$$

NEZ041-046>049-061>064-073>077-083>087-232200-
SOUTH CENTRAL NEBRASKA

CITY           SKY/WX    TMP DP  RH WIND       PRES   REMARKS
GRAND ISLAND   SUNNY     71  25  17 S21G35    29.96F
AURORA         SUNNY     71  26  18 S25G32    29.95F
HASTINGS       MOSUNNY   70  25  18 S18G31    29.96F
HEBRON         SUNNY     70  29  22 S16G28    30.01F
HOLDREGE       MOSUNNY   68  24  18 S26G37    29.95F
KEARNEY *      MOSUNNY   70  27  19 S26G36    29.95F
YORK           SUNNY     72  23  16 S26G32    29.97F
$$

NEZ011>018-030>034-042>045-232200-
NORTHEAST NEBRASKA

CITY           SKY/WX    TMP DP  RH WIND       PRES   REMARKS
NORFOLK        SUNNY     73  25  16 S23G35    29.91F
ALBION         SUNNY     72  24  16 S24G32    29.92F
BLAIR          MOSUNNY   73  29  20 SW21G30   29.98F
FREMONT        CLOUDY    71  28  20 S20G26    29.98F
TEKAMAH        CLOUDY    73  31  21 S22       29.97F
WAYNE          CLOUDY    71  32  23 S23G33    29.92F
$$

NEZ050>053-065>068-078-088>093-232200-
SOUTHEAST NEBRASKA

CITY           SKY/WX    TMP DP  RH WIND       PRES   REMARKS
LINCOLN        SUNNY     71  29  21 S17G28    29.99F
OMAHA EPPLEY   PTSUNNY   73  28  18 S15       29.98F
BEATRICE       SUNNY     71  33  24 S20       30.01F
FALLS CITY     SUNNY     70  35  27 S12       30.03F
NEBRASKA CITY  MOSUNNY   70  14  11 S14G22    30.02F
PLATTSMOUTH    MOSUNNY   71  16  12 S13G23    30.01F
$$

NEZ044-045-051>053-067-232200-
OMAHA AREA

CITY           SKY/WX    TMP DP  RH WIND       PRES   REMARKS
OMAHA EPPLEY   PTSUNNY   73  28  18 S15       29.98F
BLAIR          MOSUNNY   73  29  20 SW21G30   29.98F
FREMONT        CLOUDY    71  28  20 S20G26    29.98F
MILLARD        CLOUDY    73  33  23 S12G23    29.98F
OFFUTT AFB     MOSUNNY   72  31  22 S14G23    29.99F
PLATTSMOUTH    MOSUNNY   71  16  12 S13G23    30.01F
WAHOO          FAIR      73  24  16 S17G28    29.98F
$$



USA.gov is the U.S. government's official web portal to all federal, state and local government web resources and services.